Starlink 6163

operational
NORAD ID: 57128 Int'l Des: 2023-090 Owner: SPXS Country: US Constellation: starlink
LEOCIRCULAR

关于 Starlink 6163

正在加载描述...

实时位置

正在加载3D地球...

即将过境

高度历史

Altitude vs Time

uPlot chart will show altitude changes over time

两行轨道根数

1 57128U 23090AD 25260.02752660 -.00000765 00000-0 -41609-4 0 9994
2 57128 43.0023 137.9716 0000965 274.9730 85.1002 15.02529841124104
Epoch: Sep 17, 2025 • Age: 23 hours

当前状态

高度 562.9 km
速度 7.59 km/s
星下点 43.12°N, 128.11°W
发射日期 Jun 23, 2023
运行时间 2.2 years
类型 internet

技术详情

分类 Payload
质量 305.00 kg
干质量 290.00 kg
总质量 305.00 kg
长度 0.20 m
直径 2.80 m
跨度 9.00 m
形状 Box + pan
制造商 SPXS
平台类型 Starlink
阶段状态 In Orbit
所有者/国家 SPXS/US

大型星座

Loading constellations...